Wind_Speed
16 11 11 12 12 15 16 16 12 6 6 10 11 11 9 9 9 7 7 5 6 10 12 13 12 9 9 10 11 13 15 14 13 14 15 20 20 15 15 13 11 13 14 15 15 14 15 15 15 16 16 16 18 19 18 18 18 19 19 18 17 16 16 15 13 13 11 9 7 7 6 5 4 3 3 3 3 2 0 1 2 2 2 3 4 5
16 11 13 15 14 16 17 16 13 7 7 9 8 9 9 7 7 8 6 4 5 8 10 11 10 11 10 9 11 13 14 13 14 14 14 17 19 15 15 14 8 7 10 8 9 10 12 14 13 14 17 18 20 20 18 19 18 18 18 17 16 16 16 14 12 11 10 9 8 7 7 6 5 4 3 3 3 4 2 0 0 1 2 3 4 5
13 12 15 18 15 15 16 16 13 9 9 8 7 8 8 7 7 8 5 3 6 7 8 12 11 10 11 9 11 11 11 11 13 13 12 14 15 13 16 19 15 9 7 6 8 10 8 11 10 10 16 19 19 19 18 19 19 19 18 16 15 15 15 14 12 11 11 10 9 7 7 6 6 6 5 4 3 4 3 2 1 1 2 3 4 5
10 11 15 16 15 16 15 15 14 10 9 7 7 7 7 9 7 6 7 5 6 5 5 13 11 7 10 8 9 9 9 10 10 9 10 12 12 12 14 17 18 18 14 8 4 7 8 9 8 9 14 16 16 16 17 18 18 18 17 16 14 13 14 14 12 12 11 10 9 8 8 7 6 6 6 4 3 3 1 2 1 3 3 4 6 7
11 12 15 15 14 16 15 14 14 11 9 9 9 8 7 11 6 2 7 8 6 3 5 12 10 6 9 10 9 8 8 9 9 9 9 11 11 12 13 13 13 16 17 14 12 13 12 8 7 8 10 12 13 15 16 17 17 17 16 15 14 12 13 13 13 12 10 8 8 8 8 7 6 5 5 3 1 1 1 2 2 3 5 6 8 9
12 13 17 17 16 17 15 14 15 12 9 9 11 10 5 9 7 5 9 9 7 7 8 10 9 7 10 12 11 10 9 10 10 11 11 12 13 13 13 13 13 15 18 16 15 15 14 11 10 10 10 12 14 14 15 16 16 16 15 14 14 13 12 12 12 10 8 7 6 6 6 6 4 3 3 2 1 0 1 2 2 5 7 9 10 10
9 13 17 17 17 19 16 13 16 15 9 8 11 12 5 6 7 6 8 9 6 6 7 8 8 7 9 11 13 12 12 12 11 11 13 14 14 15 15 15 16 17 19 19 19 17 15 17 17 15 14 15 15 15 15 15 15 15 14 14 14 13 12 11 10 9 7 6 6 7 5 5 4 3 3 3 2 2 1 2 3 5 8 9 10 11
10 16 17 17 17 17 14 12 15 17 11 6 11 15 9 5 7 6 6 8 3 3 6 8 9 5 7 11 13 14 13 14 13 12 13 15 15 16 16 17 18 19 20 22 22 21 18 19 20 18 17 15 15 15 14 15 15 14 13 13 13 12 11 10 9 8 7 7 7 6 5 5 5 3 3 2 1 1 1 2 3 5 8 9 10 11
11 16 17 18 17 13 12 12 14 17 12 4 10 14 12 8 8 6 6 7 2 2 6 10 10 7 6 10 13 14 14 14 15 14 14 16 18 17 16 17 19 20 22 22 22 22 21 20 20 19 18 15 15 15 14 14 14 13 14 13 12 11 10 9 9 9 8 7 7 6 5 4 3 2 1 1 1 1 1 2 3 5 7 8 9 9
10 15 16 16 14 10 13 13 14 17 11 5 9 12 12 9 8 6 7 6 3 5 8 11 12 10 6 10 11 11 13 13 13 13 15 17 19 19 17 18 19 20 21 22 22 21 21 21 20 20 19 16 15 14 13 14 13 12 13 12 11 10 9 9 10 9 7 7 6 5 4 2 1 1 1 2 2 1 1 1 2 4 6 7 7 6
10 16 16 14 13 11 13 12 15 18 12 7 9 10 10 9 8 5 6 5 5 7 10 10 13 12 8 9 11 10 13 15 14 12 14 17 20 20 20 19 19 20 19 19 20 18 18 20 22 21 20 17 16 15 13 14 13 13 12 12 11 10 9 10 9 8 6 6 5 3 2 1 1 1 2 2 2 1 1 1 2 3 4 5 5 5
11 14 12 11 13 12 12 12 14 17 13 9 9 10 9 8 7 6 6 6 6 8 11 12 12 12 10 7 10 13 16 17 16 14 14 17 21 22 21 21 20 20 19 18 19 18 19 22 22 22 21 18 17 16 14 14 14 14 13 12 12 11 11 10 8 7 6 4 3 1 0 1 2 1 1 1 1 2 1 1 2 2 3 3 4 5
11 12 11 10 11 13 13 11 11 13 11 10 10 10 10 8 7 8 9 8 8 6 6 10 11 10 10 6 7 13 17 17 16 15 15 18 22 23 22 23 21 20 20 20 19 19 21 22 22 22 21 19 18 16 15 16 15 14 14 13 12 12 10 9 8 7 6 3 0 1 2 3 4 2 2 2 2 2 2 2 2 3 3 4 5 6
10 11 13 12 11 14 15 11 10 11 11 12 11 10 10 9 8 10 9 8 9 5 5 8 9 8 8 7 7 10 10 10 11 11 12 17 22 22 22 24 22 21 22 21 18 17 19 20 21 21 20 19 18 16 15 16 15 14 14 13 12 11 10 9 9 7 5 2 2 4 4 5 5 2 2 2 3 2 2 2 4 4 5 5 6 7
11 9 13 13 10 15 17 12 11 11 12 12 11 10 10 8 7 9 9 9 10 8 8 8 8 8 7 4 5 5 3 3 5 7 8 14 21 21 21 22 20 21 22 20 18 17 17 19 20 20 20 19 18 17 16 15 14 14 13 13 11 11 10 9 8 6 3 2 4 6 6 5 3 1 2 1 2 3 3 3 4 5 6 6 7 8
12 7 13 14 10 15 17 13 12 12 11 11 10 10 10 9 7 5 3 3 6 7 8 8 6 5 3 3 4 4 4 5 7 9 10 14 20 21 20 21 20 21 22 21 18 17 17 19 20 20 20 18 17 18 16 14 14 13 13 13 11 10 9 8 7 4 2 3 5 7 6 4 2 1 1 1 2 2 3 3 4 6 6 6 7 7
10 7 15 15 9 15 18 13 13 12 8 8 11 10 7 6 6 5 2 3 2 7 7 7 7 5 3 5 7 6 5 7 9 12 14 16 21 22 21 22 23 24 23 22 21 20 20 19 19 20 20 18 18 18 17 16 14 13 13 12 11 10 9 7 5 3 2 4 6 5 3 1 1 2 1 2 3 1 2 3 5 6 6 7 7 7
8 7 14 16 11 16 20 15 13 14 10 7 10 9 5 0 3 4 5 4 6 9 5 7 9 9 7 6 8 9 9 9 10 13 15 17 21 23 24 25 26 25 24 23 24 25 24 23 22 22 21 19 19 18 17 17 15 14 13 11 11 10 9 7 5 3 2 3 4 2 1 1 2 2 1 2 2 1 2 4 5 6 7 7 7 7
6 7 11 14 12 14 17 14 12 15 12 7 9 9 6 4 5 5 6 6 9 9 5 8 10 10 9 7 8 11 13 11 12 14 15 17 20 23 24 25 26 25 24 25 26 26 27 27 27 26 22 20 20 19 18 18 18 16 13 11 10 9 7 5 4 2 1 2 2 2 2 1 2 2 2 3 3 1 3 4 6 7 8 8 8 8
7 5 8 12 13 13 12 11 11 12 9 8 9 10 7 6 6 7 6 5 7 8 6 9 10 8 9 8 8 11 14 14 14 14 14 16 20 22 24 26 27 26 25 25 24 25 27 28 28 27 24 22 22 21 21 20 19 17 14 11 9 8 6 4 2 1 0 1 1 1 1 1 1 2 3 4 3 3 4 6 7 9 9 9 9 9
7 4 6 12 14 12 10 10 11 12 11 9 9 10 10 5 2 6 8 5 6 8 7 7 8 7 7 7 7 9 10 12 14 14 13 17 22 23 24 28 28 26 25 24 22 23 26 28 27 26 24 24 24 23 23 22 18 15 13 11 8 6 5 4 3 2 0 1 2 2 2 2 2 4 5 4 4 5 7 8 10 11 11 10 10 10
7 5 7 10 11 10 9 12 13 13 14 12 9 9 11 8 5 6 8 7 6 5 5 6 7 6 4 3 3 5 6 10 14 15 13 18 23 24 26 28 27 25 24 23 22 22 25 27 27 27 26 27 27 26 25 23 17 13 12 11 8 7 5 4 3 2 1 3 3 3 3 2 4 7 6 6 6 7 9 11 13 13 12 11 11 11
3 4 7 9 9 9 8 12 14 13 15 15 11 10 11 9 9 8 7 8 7 4 3 4 5 3 3 4 2 4 6 10 15 16 16 19 24 25 26 26 25 24 23 21 20 22 26 28 28 28 28 27 27 27 25 20 14 12 12 10 8 7 5 4 3 1 3 4 4 3 3 5 8 8 8 7 9 11 13 14 15 13 12 12 11 11
2 4 7 8 9 8 7 8 11 12 14 14 12 12 11 10 12 10 6 7 8 7 6 4 5 3 4 3 3 5 7 11 14 17 18 20 21 23 24 26 26 25 23 22 22 24 27 28 28 28 29 29 28 26 21 17 13 12 11 9 8 7 5 4 3 3 4 5 5 5 5 7 9 9 9 10 12 14 15 15 14 13 12 12 11 10
6 6 7 8 9 9 8 8 11 12 13 11 10 12 12 13 14 10 7 7 8 11 11 7 6 4 4 3 3 6 9 11 13 16 19 20 21 21 21 25 27 25 24 25 26 27 28 28 29 29 29 31 29 23 18 15 13 12 10 9 8 7 6 4 3 4 6 5 5 7 8 9 10 11 11 14 15 15 15 14 13 12 12 12 10 10
7 6 7 8 9 10 10 9 9 11 11 9 11 15 15 16 16 10 6 7 8 11 13 10 5 4 5 3 6 8 10 11 13 16 18 20 22 21 20 23 26 24 24 25 26 27 28 28 29 28 27 28 26 21 16 14 13 12 11 10 8 7 5 4 4 6 6 6 7 9 10 10 12 14 15 16 16 15 14 13 12 12 11 11 9 9
5 6 9 9 8 8 9 8 9 11 12 11 14 16 16 16 16 11 8 8 8 9 10 11 9 3 6 7 8 10 11 11 13 16 18 20 21 21 20 21 23 23 24 25 24 25 26 26 26 25 25 24 21 18 16 15 14 13 12 10 9 7 5 4 6 7 7 7 9 11 11 12 14 17 18 17 16 14 13 12 12 12 11 10 10 9
4 7 11 8 4 3 3 6 11 14 15 14 15 16 16 17 17 14 10 8 9 8 8 12 12 8 5 9 10 11 12 11 12 15 18 19 20 21 21 20 23 23 23 25 27 27 27 26 24 22 22 21 19 17 16 14 13 12 11 10 7 6 6 6 8 8 8 10 12 12 13 15 18 19 18 16 15 14 13 12 11 11 11 10 10 11
4 7 10 7 2 3 4 5 9 13 16 16 16 17 18 19 19 17 13 10 9 8 7 10 14 13 9 8 11 12 12 12 13 14 16 18 19 20 21 22 22 23 25 28 29 29 30 31 29 24 22 21 19 18 17 15 13 11 10 8 6 5 7 8 9 10 11 13 14 14 16 20 21 19 18 16 15 13 12 12 11 11 10 10 11 11
5 5 9 8 5 4 4 4 7 11 14 16 17 18 18 19 20 18 16 14 11 9 7 5 11 14 9 3 8 12 12 13 15 16 17 20 20 20 22 24 23 25 29 30 28 27 26 26 26 24 23 22 20 19 17 13 11 11 9 7 7 6 7 9 10 12 15 16 16 18 20 22 21 19 17 15 14 13 12 11 11 10 10 11 11 11
6 4 8 8 6 5 3 3 6 10 12 14 16 17 18 19 20 18 17 15 13 12 9 5 7 10 4 3 7 12 13 14 17 18 19 21 23 22 23 24 25 26 28 27 26 26 24 21 21 22 22 21 19 19 17 12 10 10 9 7 7 7 8 10 12 15 17 18 20 21 21 20 19 18 17 15 14 13 12 11 11 11 11 11 11 11
6 4 6 7 7 6 4 3 6 9 11 13 16 17 18 18 16 16 15 13 12 12 11 9 9 7 6 7 9 12 14 15 17 19 20 21 24 26 24 24 26 28 27 26 27 27 23 21 22 22 21 20 18 17 16 13 12 11 9 8 8 9 10 12 16 18 20 21 22 20 18 18 19 17 16 14 13 12 12 11 11 11 12 11 11 10
8 5 5 7 6 5 5 4 6 8 10 11 10 11 14 15 14 14 12 11 12 13 10 9 8 4 9 11 10 12 13 15 18 22 23 23 24 26 26 23 24 28 28 28 28 26 23 24 24 22 22 20 17 15 14 13 12 11 10 10 10 10 12 15 19 21 22 23 22 17 15 15 16 16 15 13 12 12 12 12 12 12 11 11 10 10
10 8 5 7 6 5 6 5 6 9 8 5 2 1 4 7 9 12 11 11 13 12 6 3 2 6 11 12 12 13 14 15 18 21 22 24 24 25 26 24 25 30 31 31 29 25 24 27 26 23 21 18 15 14 13 13 12 11 11 11 11 12 14 17 21 23 24 23 22 19 16 14 13 13 13 12 13 14 14 13 13 12 11 11 10 10
10 8 6 6 5 5 7 6 7 7 3 3 3 2 2 1 1 4 6 8 11 11 7 4 3 7 10 9 10 12 13 13 17 19 21 23 24 24 25 25 29 31 30 30 30 24 23 26 24 21 20 17 16 15 14 13 13 12 11 11 13 14 15 17 21 24 24 22 20 19 17 15 14 13 13 14 15 15 14 13 12 11 11 11 11 12
9 8 6 5 5 5 6 7 6 3 5 5 4 3 3 2 2 2 5 8 11 11 10 8 5 6 7 8 9 10 12 13 16 18 20 23 25 26 27 27 31 33 31 29 27 24 24 24 22 20 19 18 17 16 14 14 13 12 12 12 13 15 15 16 21 24 22 20 19 19 18 16 15 14 14 15 15 14 13 12 12 12 12 12 12 13
10 8 6 5 4 4 6 8 4 3 5 5 3 5 6 3 5 6 6 9 12 12 11 8 6 7 8 10 11 12 14 14 12 14 21 24 24 26 29 30 33 34 32 28 24 23 23 22 20 20 19 18 17 15 14 14 13 12 12 12 13 15 17 19 22 23 22 20 20 20 19 17 16 16 16 15 14 13 13 13 13 13 13 13 13 13
10 9 8 6 4 5 7 8 6 4 6 4 3 6 6 2 2 4 4 6 10 13 12 9 7 10 10 11 14 16 15 12 8 12 22 27 26 26 28 30 32 31 29 26 25 25 23 20 20 20 20 19 17 16 15 14 13 12 12 13 14 16 19 21 23 23 22 21 21 20 19 18 17 16 15 14 13 14 14 13 14 14 14 13 13 13
10 9 8 7 6 6 7 8 7 5 4 4 5 7 6 3 2 2 5 6 9 14 16 11 9 13 12 14 18 17 13 8 7 13 24 29 29 28 27 28 30 30 29 27 26 25 24 22 22 21 20 20 18 16 16 14 13 13 13 14 15 17 20 21 21 21 22 22 21 20 19 18 17 16 15 15 14 15 15 14 15 14 13 13 12 13
10 8 8 8 7 7 8 7 6 4 3 5 5 6 7 4 3 5 8 5 3 11 17 13 11 14 15 17 19 14 9 3 1 11 25 29 27 27 27 29 31 31 31 28 25 25 26 24 24 23 21 20 19 17 16 14 13 12 12 15 17 19 22 22 21 20 22 22 21 19 18 18 17 16 16 15 16 16 15 15 14 14 13 13 13 14
8 8 8 9 8 8 9 8 5 4 4 5 5 7 6 4 4 6 6 1 3 6 13 12 12 15 17 18 17 10 6 1 5 9 26 30 26 25 26 28 29 29 32 31 28 28 27 23 22 22 21 19 19 17 15 14 13 11 13 17 19 20 22 23 21 21 22 21 20 19 18 18 17 17 17 16 16 16 15 14 14 13 13 13 13 15
8 7 7 8 9 8 7 8 7 4 3 6 7 6 3 4 4 2 1 3 4 3 9 9 10 14 16 17 15 8 4 3 4 11 26 30 27 26 27 28 28 28 31 31 30 29 26 23 22 22 21 19 18 16 14 14 12 12 15 20 20 19 21 23 22 22 22 21 20 19 18 19 18 18 18 17 16 16 15 14 13 13 13 14 15 16
6 7 8 7 7 7 7 8 8 4 5 12 12 5 2 3 1 3 2 2 3 1 6 7 8 12 13 14 13 8 6 6 8 15 25 28 26 27 29 29 28 29 30 30 29 27 25 24 25 24 23 22 18 15 13 12 11 13 18 23 21 20 22 23 23 23 22 21 21 20 19 20 19 18 18 17 16 15 14 14 14 14 14 15 16 16
2 4 7 5 5 6 7 6 3 1 4 10 8 2 1 3 5 5 4 4 5 1 4 5 7 11 12 13 13 10 8 10 12 17 25 26 25 27 29 27 27 30 33 33 31 29 27 28 28 26 24 22 18 15 12 10 11 16 21 24 23 23 24 23 23 23 22 22 22 21 21 20 19 18 17 16 15 14 14 14 14 15 16 16 15 15
2 2 2 1 1 2 2 1 2 2 1 3 2 6 5 5 4 4 5 6 6 3 1 3 6 10 11 12 14 13 11 12 15 18 24 26 26 28 28 26 30 35 35 34 32 30 29 30 29 27 24 22 18 15 13 12 15 21 25 25 26 26 26 24 24 24 23 23 23 23 22 21 19 18 17 16 15 14 14 14 15 15 15 15 14 14
2 2 3 2 2 2 2 3 3 2 2 4 1 4 5 3 2 2 3 5 5 4 1 2 5 9 10 11 13 14 13 14 16 19 23 26 27 28 27 28 33 36 36 35 33 31 31 31 29 27 25 22 19 17 15 16 20 24 27 28 28 28 27 26 25 25 25 25 24 23 22 21 19 18 17 16 15 15 14 15 15 15 14 14 13 13
2 0 2 1 2 3 2 3 3 1 2 6 5 1 2 3 3 2 2 2 3 2 0 1 4 8 10 11 13 14 14 15 16 18 22 25 26 27 28 31 35 36 35 35 34 33 34 33 30 27 25 23 20 18 18 20 23 25 27 29 29 28 27 27 26 26 26 25 24 23 21 20 19 18 17 16 16 15 14 14 14 14 13 12 12 12
3 2 2 2 2 3 1 3 2 1 3 6 7 4 1 2 3 3 2 2 2 1 1 3 5 7 9 10 13 14 15 17 17 18 22 24 24 27 32 35 36 37 36 35 34 35 35 33 30 28 25 24 22 21 21 23 25 26 28 29 28 27 27 26 25 25 25 25 24 23 21 19 19 18 18 17 16 15 14 13 12 13 12 12 12 12
2 2 2 1 2 3 2 3 2 3 4 6 7 6 3 1 2 3 3 2 1 1 3 4 5 7 9 10 13 15 17 18 17 19 22 22 22 28 35 38 38 38 36 35 36 36 35 33 31 28 25 24 24 24 25 26 26 26 27 27 26 26 25 25 24 24 24 24 24 23 21 20 19 19 19 19 17 17 16 15 14 14 14 14 14 15
2 2 2 2 4 3 1 2 1 2 1 4 4 4 3 4 3 2 3 2 1 2 3 5 6 7 9 10 13 16 18 19 19 20 21 22 22 26 34 38 39 38 37 37 38 38 35 33 31 27 26 26 26 27 28 28 27 27 26 25 25 24 24 25 25 24 24 24 23 22 22 20 20 19 19 19 18 17 17 16 16 16 15 14 15 15
2 1 1 2 1 2 5 5 3 2 2 4 3 2 1 1 1 1 2 1 1 2 3 5 7 8 9 11 14 17 20 22 21 20 20 21 23 26 33 39 40 39 40 42 42 40 36 33 30 27 26 28 29 29 29 28 28 27 26 25 25 25 25 25 25 24 24 23 23 22 21 21 20 20 19 18 18 17 17 16 16 16 16 16 15 15
Wind_Direction
184 190 200 203 199 193 194 200 205 208 191 187 190 199 201 189 185 164 122 121 192 205 195 198 199 170 163 172 162 160 163 158 154 162 167 164 167 179 176 163 163 166 167 178 185 187 185 176 168 160 156 156 158 165 171 169 166 165 169 173 173 175 174 172 172 168 165 168 166 162 162 158 155 170 186 170 148 138 180 324 17 21 324 313 317 316
188 205 203 199 199 190 191 199 202 203 191 190 195 196 201 199 167 147 139 132 189 216 193 189 195 174 171 172 161 161 166 168 165 167 178 172 162 166 162 151 143 109 104 121 144 155 159 152 149 154 158 162 167 170 167 162 165 170 173 173 176 180 175 172 171 165 163 165 165 161 158 157 156 160 159 153 148 138 127 98 148 256 282 304 311 309
194 213 203 196 198 188 188 195 196 195 192 196 200 197 200 186 138 137 148 134 186 220 184 179 193 173 166 168 160 167 172 168 170 175 180 168 151 148 156 164 174 153 104 75 71 81 119 147 147 159 171 172 171 170 163 162 171 175 176 177 181 179 170 166 163 161 163 166 163 155 160 169 167 162 153 146 140 123 131 208 246 332 320 330 341 339
193 208 199 189 187 182 182 188 192 194 198 206 199 201 196 172 155 161 168 155 182 233 193 180 188 165 162 170 160 169 174 160 162 178 181 169 151 146 162 172 177 177 175 174 126 96 117 152 172 187 187 178 170 166 163 168 175 176 176 180 184 174 162 162 162 162 164 166 165 166 175 170 156 153 138 123 115 109 164 253 335 358 346 347 351 349
198 195 180 174 178 181 181 185 193 196 197 205 203 208 191 171 179 154 148 153 166 209 197 179 183 171 171 181 172 166 175 170 165 168 172 174 166 157 164 166 166 174 172 160 156 154 144 152 184 189 184 177 171 166 168 173 174 173 174 175 179 173 163 162 163 162 160 166 176 173 165 144 124 113 99 94 89 68 296 311 352 357 354 347 346 345
203 179 167 176 185 189 189 188 194 198 195 199 206 217 194 161 166 120 140 165 175 186 189 187 196 186 182 192 185 171 178 188 184 180 179 172 169 165 161 158 156 165 170 163 160 161 159 172 191 190 184 179 171 163 165 170 169 171 172 169 171 169 162 159 157 156 155 169 173 150 138 125 113 112 117 148 212 254 286 313 333 348 352 345 343 340
190 166 173 186 186 189 194 194 194 196 203 199 197 208 200 149 163 146 161 188 192 176 173 201 220 184 179 198 191 181 185 190 190 192 190 176 175 182 172 162 160 158 164 168 166 160 159 174 185 191 195 190 177 166 162 164 164 166 166 165 166 161 154 152 152 156 158 161 147 130 134 133 134 170 179 186 204 203 246 320 325 336 346 345 341 334
170 169 183 187 184 190 195 196 191 195 213 198 175 192 197 177 174 165 186 203 196 118 148 200 233 212 187 200 194 189 190 191 192 196 191 182 186 193 180 168 168 165 165 168 169 165 163 173 180 186 193 189 179 173 167 163 163 162 159 159 159 153 147 148 151 155 154 149 141 138 150 153 160 189 196 197 220 207 279 314 310 327 341 344 338 331
163 177 182 183 188 194 196 195 183 192 216 173 154 185 196 196 193 188 207 211 193 180 184 192 215 234 200 184 188 194 198 197 196 195 194 190 191 193 186 176 174 173 172 174 175 174 176 182 183 183 185 178 174 175 165 160 162 158 155 153 152 148 146 150 151 151 149 148 147 148 154 162 174 180 175 194 239 298 281 308 326 339 345 342 336 334
168 186 181 184 194 193 196 193 175 192 211 146 152 187 193 202 209 209 219 214 188 213 214 185 189 221 210 170 180 197 201 202 199 198 196 191 190 192 189 182 178 178 176 179 182 179 178 183 183 179 175 170 173 175 165 161 162 157 156 157 155 151 149 150 150 147 146 147 149 153 161 164 174 174 200 209 203 244 262 0 351 347 344 336 334 344
162 183 185 192 202 196 192 183 175 193 200 151 165 186 185 199 207 209 228 223 201 213 220 193 187 214 218 177 181 195 202 204 205 203 194 187 188 192 191 184 181 182 176 174 175 171 169 178 182 175 170 172 175 173 168 164 162 159 159 162 159 152 146 146 145 143 143 151 153 156 165 163 186 192 205 218 197 166 57 49 2 352 345 339 351 4
159 178 187 192 203 197 183 177 180 192 192 175 186 188 182 190 194 201 211 212 217 218 213 198 191 210 221 196 179 187 199 205 210 209 193 185 188 189 188 185 182 181 176 171 169 167 168 175 179 173 168 174 176 170 167 164 161 159 155 156 157 149 145 146 147 149 155 163 160 137 80 36 336 314 173 187 134 98 82 44 14 11 -0 3 24 25
174 184 179 176 195 194 179 174 180 189 193 195 197 191 187 183 185 203 202 201 218 214 190 191 193 206 226 227 186 185 195 202 211 215 200 188 186 184 183 183 180 177 174 172 171 172 171 171 174 172 170 174 175 170 168 165 162 159 154 155 155 151 154 158 158 166 176 181 299 339 350 346 337 347 115 112 93 92 77 37 3 4 19 28 33 30
175 181 178 177 187 195 193 185 179 185 192 199 198 191 193 188 184 200 200 199 210 187 142 180 199 210 227 225 189 180 190 197 202 215 213 192 183 180 180 181 178 176 175 171 171 174 171 168 171 171 169 171 173 172 171 167 163 161 157 155 156 157 163 167 171 184 201 234 322 328 335 337 338 17 105 107 97 71 33 3 346 6 27 30 30 32
178 180 183 186 181 186 200 201 184 181 188 199 203 199 205 202 188 198 202 199 203 188 153 164 192 211 215 189 149 148 150 172 182 198 208 188 178 176 178 176 172 173 173 166 167 170 167 168 171 170 168 170 175 175 172 168 164 161 158 158 161 160 159 168 184 198 224 287 317 322 324 326 334 54 113 103 74 25 353 335 352 22 36 35 37 40
188 179 168 182 184 179 194 205 188 183 189 195 201 206 212 213 197 190 212 205 198 196 174 171 195 213 193 135 131 147 164 182 191 192 190 180 174 172 171 171 169 171 171 163 162 162 159 166 171 170 168 171 176 178 174 171 165 161 160 160 161 156 154 168 192 208 247 296 313 320 320 315 296 193 157 60 41 15 340 344 15 33 44 47 48 47
187 160 154 168 181 182 191 198 190 191 190 183 200 207 201 220 217 179 134 61 174 212 194 179 200 204 197 191 175 171 186 191 191 192 189 180 173 167 168 174 175 173 167 159 157 156 154 161 169 172 172 174 176 177 177 175 169 166 164 160 160 168 174 181 195 216 258 301 317 323 316 288 204 178 139 66 59 40 341 11 30 40 51 56 57 54
177 143 154 167 171 182 190 187 190 206 203 181 197 192 148 161 267 203 180 150 189 218 194 177 205 207 207 203 169 174 196 195 188 188 184 177 173 170 171 176 175 168 160 157 163 169 172 176 182 182 182 182 180 174 172 173 171 168 164 159 166 176 180 181 181 200 270 313 323 316 271 212 145 132 110 93 91 72 13 33 44 53 62 67 66 65
183 142 157 176 167 170 184 184 192 209 214 218 203 181 165 197 214 207 204 184 194 214 205 198 213 213 209 200 171 185 197 190 185 185 178 174 178 175 171 172 168 162 161 163 168 176 182 185 186 186 184 185 180 171 170 175 175 174 167 161 168 171 166 170 178 202 297 322 302 271 255 189 125 116 102 102 106 75 41 47 58 69 78 81 77 77
197 161 156 181 170 159 177 194 196 191 197 229 213 188 196 218 209 201 205 199 198 208 213 206 207 212 213 206 194 197 194 186 181 180 177 176 177 174 170 170 167 164 166 170 172 176 181 183 183 182 182 182 178 175 177 178 174 175 173 166 169 172 168 170 166 144 46 345 291 232 184 188 153 118 103 106 111 82 63 63 75 87 92 88 83 81
190 192 157 176 173 166 180 197 201 185 179 203 207 190 194 205 216 202 198 210 215 207 208 205 207 213 204 204 218 209 189 180 177 175 176 173 171 171 173 171 168 167 170 172 174 174 175 178 178 178 180 180 177 177 180 178 171 168 171 171 171 172 164 150 133 132 139 283 240 192 188 217 176 121 108 109 101 83 80 83 89 95 94 89 86 80
190 198 160 165 175 184 187 189 200 195 183 193 199 192 193 192 198 197 190 204 227 223 213 212 221 214 166 157 219 203 174 173 175 173 172 172 171 172 175 173 168 168 171 171 170 169 169 174 176 177 179 178 176 177 179 178 173 167 171 175 172 163 153 143 136 142 263 257 233 222 222 182 132 118 113 108 98 93 95 93 91 92 91 90 88 81
194 201 169 166 182 191 175 179 200 199 188 196 203 200 197 194 199 202 192 191 205 222 221 226 235 207 108 93 141 175 169 170 174 171 170 175 175 173 174 174 170 168 167 165 163 163 166 169 172 175 177 178 178 179 179 175 168 165 169 169 163 156 154 149 143 183 235 223 213 210 188 142 126 120 115 109 107 106 102 96 93 91 92 92 88 81
155 204 179 163 175 180 152 168 202 203 195 201 206 204 201 194 198 212 214 189 194 205 197 208 225 185 97 86 142 176 170 166 173 172 169 172 175 174 172 171 169 164 159 159 157 159 163 167 171 175 176 176 174 172 171 167 162 161 161 159 156 152 149 147 153 200 217 209 191 170 152 137 127 120 114 113 114 110 104 100 98 95 93 90 86 81
171 201 188 165 169 176 169 181 199 203 203 206 205 202 202 197 196 209 218 193 196 207 202 212 223 172 104 87 147 174 172 166 172 173 169 167 166 167 165 166 167 162 158 161 161 162 165 170 174 175 172 171 170 166 163 161 162 160 154 153 154 147 146 150 163 195 205 196 169 151 145 138 127 120 120 120 116 111 106 104 100 95 91 88 84 79
179 202 194 184 179 181 189 193 193 193 198 204 204 200 200 199 195 194 201 197 200 205 204 217 222 135 109 129 158 169 174 168 169 169 166 163 160 158 158 161 164 161 159 161 161 162 166 168 170 169 167 168 168 165 161 157 158 157 152 152 151 144 148 158 172 191 193 173 153 147 143 137 128 125 126 122 116 112 109 104 98 92 88 85 80 73
187 207 204 211 204 195 201 194 177 179 187 196 201 199 198 198 196 194 203 209 205 201 203 215 225 179 134 154 166 171 175 174 174 171 166 162 158 155 153 156 159 159 158 156 155 159 162 162 162 163 164 165 163 161 158 156 158 156 151 150 146 143 154 172 182 188 184 163 151 149 145 137 132 129 125 120 116 113 107 101 96 90 85 82 77 70
194 196 199 220 221 183 172 156 164 178 186 191 193 193 195 197 199 202 212 215 204 202 205 205 218 234 178 159 170 179 179 179 181 180 171 162 159 156 152 152 154 154 155 156 158 160 159 159 161 162 164 163 160 158 155 154 156 153 148 147 148 162 185 189 185 182 175 161 151 147 143 136 131 126 122 119 116 111 106 100 96 91 85 81 77 72
210 189 186 208 191 85 74 122 168 187 189 191 192 192 194 197 199 203 211 216 206 211 217 190 198 224 224 182 175 177 179 181 181 181 171 158 154 154 151 151 152 153 157 163 166 166 164 167 169 165 162 160 156 154 153 152 154 151 149 152 156 176 186 179 174 169 162 156 149 145 140 133 128 124 121 120 115 109 106 102 97 92 87 82 76 72
224 177 166 190 179 107 83 130 177 195 194 196 198 195 194 198 201 202 207 212 211 219 236 200 190 212 231 214 169 163 168 176 172 169 167 159 155 153 155 157 157 160 167 170 170 168 165 166 166 161 158 155 153 153 149 145 150 154 156 163 162 167 175 174 166 156 152 151 147 143 138 131 127 125 123 119 114 110 107 103 99 94 88 83 78 72
216 160 150 182 181 141 124 141 178 197 198 199 201 199 197 198 200 203 206 208 210 217 229 236 217 211 198 99 140 148 155 169 170 167 169 166 161 158 159 162 162 166 172 171 166 163 160 159 158 154 151 151 154 156 149 146 165 175 178 180 172 167 173 170 157 148 147 148 144 139 133 128 127 126 123 119 115 112 109 105 101 95 90 86 82 78
206 178 159 196 201 168 155 157 169 185 195 201 204 201 199 199 199 203 206 203 205 212 213 221 234 218 158 134 142 150 159 171 175 175 173 169 166 164 163 166 167 167 168 166 162 158 156 155 155 151 150 156 163 163 159 164 179 184 178 171 164 163 163 157 149 146 145 142 138 132 128 128 127 126 124 120 116 112 108 106 102 97 94 92 89 87
198 197 181 202 205 166 158 171 159 167 188 199 204 201 201 203 201 199 200 197 204 213 212 215 225 183 146 150 153 161 173 180 183 183 176 170 170 170 166 166 167 163 160 160 160 158 156 156 157 158 161 164 165 163 161 166 168 165 159 153 151 157 154 148 146 144 141 137 134 128 125 126 125 126 125 119 113 109 107 106 104 101 98 96 93 90
192 205 196 195 201 170 164 174 166 175 189 184 151 176 202 204 200 198 197 198 206 214 222 238 209 143 148 162 170 175 183 186 186 183 176 170 170 170 167 165 166 164 162 162 162 160 160 160 162 167 167 161 158 157 156 157 155 150 147 144 146 151 148 144 144 143 139 137 133 130 127 124 122 124 121 115 113 111 108 108 107 104 101 99 97 94
186 203 196 195 212 180 164 181 187 186 181 109 103 78 57 64 205 216 218 211 207 211 220 232 202 162 163 170 174 176 178 179 177 175 173 172 169 166 164 164 165 166 166 167 165 161 160 158 159 163 163 158 155 155 153 152 150 144 142 142 145 145 143 142 142 141 139 136 133 130 129 125 124 120 113 112 115 114 112 111 108 106 104 102 102 100
185 196 192 198 212 178 175 199 196 145 96 103 117 124 111 109 157 199 240 226 210 209 214 213 198 172 164 156 154 161 162 163 167 170 173 175 172 168 167 169 172 172 168 166 163 160 159 158 157 159 161 157 154 153 152 152 148 143 142 146 147 143 140 141 142 141 139 136 133 132 130 127 125 120 114 114 117 118 117 115 111 108 108 107 106 103
190 194 190 193 206 200 198 199 185 123 137 136 127 163 169 171 175 187 228 225 206 202 205 201 178 162 155 144 142 146 148 153 163 173 178 180 177 176 176 178 180 177 169 166 165 161 159 159 158 160 161 157 154 154 152 151 149 142 139 145 148 145 143 144 143 141 138 136 136 137 135 133 131 127 123 122 124 124 121 118 115 114 112 110 108 103
203 203 198 192 197 218 215 200 194 198 180 143 94 150 163 156 159 185 244 223 192 187 191 193 174 162 155 144 143 142 145 154 172 185 185 184 183 183 182 179 178 175 169 166 164 161 158 158 161 163 161 156 155 156 154 151 148 141 138 143 146 145 146 147 145 142 140 140 141 140 138 136 134 131 129 129 130 128 124 121 119 117 115 113 108 103
213 210 208 205 195 205 221 212 204 201 162 106 99 138 153 139 115 171 230 212 179 173 178 183 175 166 159 151 151 152 159 177 198 192 187 186 184 184 181 175 172 171 167 164 163 162 161 162 164 163 160 157 157 158 156 151 146 142 142 146 147 148 150 150 146 145 145 144 144 142 140 138 135 134 134 135 135 131 125 123 121 118 117 113 107 103
210 207 208 214 206 203 218 220 210 195 121 88 98 132 146 143 149 195 203 195 153 167 172 175 174 168 160 156 160 170 182 195 244 182 181 182 182 181 177 172 168 165 162 160 159 161 163 164 164 161 159 160 159 155 153 151 147 145 146 150 153 153 154 152 149 149 149 146 145 143 141 138 136 136 137 137 135 131 126 124 123 121 119 115 110 107
199 202 206 215 211 205 214 221 214 187 124 102 117 136 147 172 204 201 192 23 5 172 170 172 174 168 162 164 172 188 195 48 28 153 170 174 176 173 170 169 165 162 161 161 161 162 162 161 163 161 159 160 158 153 153 152 150 150 152 154 154 154 155 155 153 152 150 147 145 144 142 140 138 138 139 138 135 132 128 125 124 121 119 116 113 110
188 193 203 215 214 207 211 218 218 203 125 125 130 122 156 210 203 177 168 344 334 185 167 169 173 168 166 171 180 185 165 122 91 149 164 169 169 165 165 165 163 161 163 164 165 165 162 158 159 159 158 160 159 155 154 155 156 160 159 155 154 157 160 159 155 153 153 150 147 146 144 141 140 140 139 137 135 132 128 126 125 122 120 118 115 112
180 189 198 204 208 208 207 211 220 223 145 148 147 138 231 223 113 34 353 351 359 173 169 167 171 170 170 177 184 179 152 145 140 150 162 167 166 165 166 165 163 163 165 166 166 165 162 161 163 163 161 163 165 160 156 160 168 170 162 157 157 161 162 159 156 156 155 152 148 146 144 141 141 142 140 138 136 133 128 126 124 122 121 118 114 112
149 206 208 193 191 211 213 206 214 25 132 153 149 112 98 107 67 31 13 32 33 58 170 173 178 179 178 183 187 180 165 159 152 153 163 168 168 167 165 162 165 171 173 172 172 171 170 168 167 166 162 163 167 167 164 169 174 167 161 157 157 159 158 157 157 158 156 152 148 146 143 142 143 143 140 138 135 132 129 128 126 124 122 118 115 113
59 0 260 226 137 210 227 95 40 18 139 162 57 37 60 83 73 39 18 23 31 46 146 187 184 181 185 187 184 179 171 164 157 158 164 167 167 165 161 163 173 177 176 176 176 175 174 171 168 164 161 160 166 168 166 169 168 161 157 155 154 156 157 156 157 157 154 151 149 147 145 145 145 145 142 138 135 133 131 129 128 126 122 119 117 116
53 13 296 304 84 112 94 80 60 12 182 183 195 30 45 50 49 31 9 7 17 29 32 202 184 181 186 185 183 183 179 169 164 165 169 169 166 162 161 168 177 178 177 177 176 174 174 174 168 162 160 161 165 166 162 164 165 160 155 155 155 157 157 156 156 157 155 153 151 149 148 148 148 146 142 139 137 135 133 131 130 127 124 122 120 118
117 240 280 282 148 185 182 100 76 43 175 194 216 263 42 50 45 27 353 340 344 348 352 177 180 182 186 188 188 187 180 173 168 168 172 172 166 165 171 176 178 178 178 177 176 174 175 173 166 163 164 165 165 165 163 164 166 163 159 158 159 159 158 158 158 158 155 153 151 150 151 152 150 146 144 142 138 135 133 132 130 126 121 119 117 116
131 180 232 220 185 200 157 90 100 177 191 203 215 216 172 66 48 26 359 340 318 284 177 160 171 178 185 191 192 186 180 177 174 171 173 172 168 171 178 178 177 177 177 176 177 176 173 169 166 167 170 168 167 168 166 164 166 166 163 161 161 161 159 159 159 158 156 155 154 154 155 155 151 147 144 140 135 133 130 127 128 130 130 128 126 123
124 173 186 206 209 205 159 120 164 199 185 190 203 212 230 283 355 -0 352 351 343 180 168 162 164 174 186 191 189 185 181 178 176 173 171 170 169 173 175 175 175 177 177 177 178 175 171 169 169 171 174 172 169 167 164 163 164 165 163 162 163 162 160 160 160 160 160 159 158 158 157 156 154 151 149 145 144 145 144 142 144 149 148 145 143 140
205 182 156 217 229 213 113 66 17 262 150 138 170 199 225 245 261 319 3 29 111 153 164 161 160 174 188 190 189 187 182 176 175 175 173 171 171 171 173 175 177 177 176 176 175 172 171 172 172 173 175 172 167 165 163 162 162 163 164 165 164 163 162 162 163 165 165 164 163 161 159 159 158 157 155 154 153 152 152 150 150 148 145 143 143 142
281 357 17 288 252 71 40 24 357 316 30 74 94 128 161 217 239 18 34 51 104 139 163 169 174 181 186 188 191 193 192 187 180 175 175 175 172 173 177 178 178 176 175 174 172 170 171 173 173 173 174 171 168 166 164 162 162 164 166 168 167 166 167 168 169 170 170 167 166 164 162 161 160 157 155 156 155 152 151 149 145 141 140 141 140 138
Height
1475 1475 1475 1471 1468 1469 1470 1469 1467 1465 1466 1467 1468 1469 1468 1467 1469 1469 1472 1474 1473 1474 1473 1471 1472 1475 1480 1479 1479 1484 1486 1488 1491 1494 1496 1498 1502 1507 1508 1507 1508 1509 1510 1511 1514 1516 1517 1519 1521 1522 1523 1524 1526 1527 1529 1531 1533 1535 1537 1539 1541 1542 1543 1545 1546 1548 1550 1551 1553 1554 1555 1556 1557 1558 1559 1560 1560 1560 1560 1560 1560 1560 1559 1559 1559 1558
1473 1471 1467 1465 1465 1466 1469 1468 1468 1469 1469 1469 1468 1469 1468 1465 1466 1470 1473 1473 1473 1473 1471 1470 1472 1475 1478 1478 1479 1483 1486 1488 1491 1494 1496 1496 1499 1505 1507 1508 1510 1510 1510 1512 1513 1515 1517 1520 1524 1524 1524 1524 1525 1526 1528 1530 1533 1535 1537 1539 1540 1541 1542 1544 1546 1548 1550 1551 1552 1554 1555 1556 1557 1558 1559 1559 1560 1560 1560 1560 1559 1559 1558 1558 1557 1556
1471 1466 1461 1462 1463 1465 1468 1468 1470 1472 1471 1471 1469 1469 1469 1466 1468 1474 1473 1472 1473 1472 1470 1472 1474 1475 1477 1477 1480 1484 1485 1489 1493 1494 1496 1498 1499 1503 1505 1506 1508 1508 1510 1513 1515 1517 1520 1524 1526 1526 1526 1526 1526 1526 1528 1531 1532 1533 1536 1538 1540 1540 1541 1543 1545 1547 1549 1550 1552 1553 1554 1555 1556 1557 1558 1559 1559 1559 1559 1559 1558 1557 1557 1556 1555 1555
1467 1462 1458 1460 1462 1464 1468 1469 1471 1473 1473 1471 1468 1469 1468 1465 1470 1476 1474 1473 1473 1470 1470 1471 1473 1475 1478 1480 1481 1485 1487 1489 1494 1496 1497 1499 1500 1502 1504 1505 1506 1506 1509 1512 1515 1518 1523 1526 1528 1528 1529 1529 1528 1528 1529 1531 1532 1532 1534 1536 1540 1542 1542 1543 1544 1546 1548 1550 1551 1552 1554 1555 1556 1556 1557 1558 1558 1558 1558 1557 1556 1556 1555 1555 1554 1553
1459 1456 1457 1461 1463 1465 1468 1471 1472 1473 1474 1472 1469 1468 1465 1464 1469 1470 1471 1473 1473 1472 1470 1469 1478 1483 1481 1482 1483 1485 1489 1491 1494 1497 1498 1499 1500 1502 1504 1506 1508 1508 1509 1511 1513 1516 1520 1526 1529 1531 1532 1531 1530 1530 1530 1531 1531 1532 1534 1536 1540 1543 1542 1542 1544 1546 1548 1550 1551 1552 1553 1554 1555 1556 1557 1558 1558 1558 1558 1557 1555 1555 1554 1554 1553 1552
1454 1454 1458 1463 1464 1464 1467 1470 1470 1471 1472 1472 1470 1466 1463 1466 1470 1470 1471 1473 1475 1479 1471 1469 1487 1492 1483 1481 1482 1484 1489 1491 1493 1496 1498 1499 1500 1502 1504 1506 1508 1508 1508 1511 1512 1514 1517 1523 1529 1532 1533 1531 1529 1530 1530 1531 1532 1533 1533 1536 1540 1542 1541 1542 1544 1546 1548 1550 1551 1552 1553 1555 1555 1556 1557 1557 1558 1558 1557 1556 1555 1554 1553 1553 1552 1551
1451 1454 1458 1461 1462 1464 1466 1468 1467 1467 1469 1471 1469 1466 1466 1469 1471 1472 1472 1472 1475 1478 1471 1469 1481 1488 1486 1481 1478 1480 1486 1488 1490 1493 1495 1497 1499 1501 1503 1505 1508 1508 1508 1510 1511 1513 1517 1521 1526 1531 1532 1530 1528 1529 1530 1531 1532 1533 1534 1536 1539 1541 1541 1542 1544 1546 1548 1550 1551 1552 1554 1555 1555 1556 1556 1557 1557 1557 1556 1555 1554 1553 1552 1552 1551 1550
1449 1455 1458 1458 1461 1463 1464 1465 1464 1465 1467 1467 1464 1466 1471 1472 1473 1474 1473 1471 1470 1471 1474 1472 1471 1480 1489 1484 1475 1477 1482 1485 1487 1490 1492 1495 1497 1498 1500 1503 1506 1507 1507 1508 1510 1511 1516 1520 1522 1526 1528 1528 1528 1528 1530 1531 1532 1533 1535 1537 1538 1540 1542 1543 1545 1547 1549 1550 1551 1552 1553 1554 1555 1556 1556 1556 1556 1556 1555 1554 1553 1552 1551 1551 1550 1550
1450 1455 1456 1456 1460 1461 1460 1460 1461 1465 1465 1462 1462 1467 1470 1471 1472 1472 1472 1470 1470 1475 1480 1474 1471 1481 1483 1477 1475 1477 1479 1482 1483 1486 1488 1490 1493 1495 1498 1502 1505 1506 1506 1507 1508 1509 1512 1517 1519 1522 1524 1526 1527 1528 1529 1531 1531 1533 1535 1537 1538 1540 1542 1543 1545 1547 1548 1550 1551 1552 1553 1554 1554 1555 1555 1555 1555 1555 1554 1553 1552 1551 1550 1550 1549 1549
1452 1453 1454 1456 1458 1457 1457 1458 1460 1465 1464 1462 1465 1467 1468 1471 1471 1472 1473 1470 1474 1484 1482 1471 1473 1481 1478 1473 1478 1481 1479 1479 1478 1480 1483 1486 1490 1493 1496 1500 1503 1505 1506 1507 1508 1509 1511 1514 1517 1519 1521 1525 1527 1528 1530 1531 1532 1534 1535 1538 1539 1540 1542 1544 1546 1547 1548 1550 1551 1552 1553 1553 1554 1554 1554 1554 1554 1554 1553 1552 1551 1550 1550 1549 1549 1549
1449 1452 1454 1454 1454 1454 1455 1457 1461 1464 1462 1463 1467 1468 1470 1472 1470 1473 1473 1469 1481 1491 1480 1467 1468 1475 1478 1474 1475 1479 1477 1474 1474 1474 1478 1482 1487 1491 1494 1498 1502 1504 1506 1507 1508 1510 1511 1514 1516 1518 1521 1524 1527 1529 1530 1531 1532 1534 1536 1538 1540 1541 1543 1544 1546 1547 1548 1550 1551 1552 1552 1552 1553 1553 1553 1553 1553 1552 1552 1552 1551 1550 1550 1549 1549 1548
1450 1453 1453 1452 1453 1453 1455 1459 1461 1462 1462 1465 1467 1467 1473 1476 1475 1479 1477 1477 1491 1492 1473 1464 1466 1473 1478 1470 1464 1470 1471 1468 1470 1470 1474 1480 1483 1487 1492 1496 1500 1503 1506 1507 1509 1511 1511 1513 1516 1518 1521 1525 1528 1529 1531 1533 1534 1535 1536 1538 1539 1541 1543 1544 1546 1547 1548 1550 1550 1551 1551 1551 1551 1551 1552 1552 1551 1551 1552 1551 1550 1550 1550 1549 1548 1548
1450 1450 1450 1453 1455 1453 1455 1460 1462 1462 1462 1465 1464 1465 1475 1481 1486 1489 1484 1484 1490 1482 1467 1463 1468 1475 1473 1461 1458 1465 1465 1464 1466 1466 1470 1476 1481 1485 1489 1494 1499 1502 1505 1507 1509 1511 1512 1514 1518 1519 1522 1525 1529 1531 1532 1534 1535 1535 1537 1538 1540 1541 1543 1544 1546 1547 1548 1549 1549 1550 1550 1550 1550 1550 1550 1550 1550 1551 1551 1550 1549 1549 1549 1548 1548 1547
1450 1449 1449 1454 1455 1453 1453 1455 1461 1463 1462 1463 1461 1464 1472 1477 1490 1497 1486 1484 1485 1477 1470 1467 1471 1479 1472 1458 1457 1462 1463 1462 1465 1466 1469 1473 1479 1485 1488 1493 1498 1501 1504 1507 1509 1512 1514 1516 1519 1521 1523 1527 1530 1532 1533 1535 1536 1536 1538 1539 1540 1541 1543 1544 1545 1547 1547 1548 1548 1549 1549 1549 1549 1549 1549 1549 1549 1550 1549 1549 1549 1548 1547 1547 1547 1546
1449 1453 1450 1450 1451 1452 1451 1449 1453 1457 1459 1460 1454 1457 1463 1463 1478 1489 1480 1480 1480 1473 1473 1476 1477 1479 1472 1462 1458 1461 1464 1466 1468 1470 1471 1474 1479 1485 1489 1493 1497 1501 1504 1507 1509 1513 1515 1517 1520 1522 1525 1528 1530 1533 1534 1536 1537 1537 1539 1540 1541 1542 1543 1545 1545 1546 1547 1547 1547 1548 1548 1548 1548 1548 1548 1548 1548 1548 1548 1548 1548 1547 1547 1546 1546 1546
1444 1447 1442 1445 1447 1448 1451 1448 1447 1453 1458 1458 1452 1456 1460 1453 1458 1472 1472 1469 1469 1470 1476 1480 1476 1466 1462 1463 1461 1463 1467 1467 1469 1472 1472 1475 1480 1485 1489 1493 1497 1501 1503 1506 1509 1512 1515 1518 1521 1523 1526 1529 1531 1533 1535 1537 1538 1538 1540 1541 1542 1543 1544 1545 1545 1545 1546 1546 1546 1546 1546 1547 1547 1547 1547 1547 1547 1547 1548 1547 1547 1547 1546 1546 1545 1545
1440 1442 1438 1444 1448 1446 1449 1449 1446 1452 1455 1455 1455 1456 1454 1447 1449 1465 1475 1470 1469 1476 1476 1474 1472 1464 1461 1464 1460 1462 1466 1465 1468 1470 1470 1474 1479 1484 1489 1492 1495 1498 1500 1503 1506 1509 1513 1517 1522 1524 1526 1528 1530 1533 1535 1537 1538 1539 1540 1541 1542 1543 1543 1544 1545 1545 1545 1545 1545 1545 1545 1545 1545 1546 1546 1546 1547 1547 1547 1547 1546 1546 1546 1545 1545 1545
1432 1442 1441 1443 1448 1447 1447 1449 1449 1448 1448 1452 1457 1453 1450 1454 1454 1459 1472 1477 1479 1482 1474 1469 1471 1467 1466 1467 1460 1460 1464 1464 1465 1467 1468 1473 1477 1482 1486 1489 1493 1496 1499 1502 1503 1505 1508 1513 1519 1522 1525 1527 1529 1532 1535 1536 1538 1539 1540 1541 1542 1543 1543 1544 1544 1544 1544 1544 1544 1544 1544 1544 1545 1545 1545 1546 1546 1546 1546 1546 1546 1545 1545 1545 1545 1545
1428 1442 1447 1441 1443 1446 1445 1450 1453 1449 1447 1450 1451 1448 1452 1465 1467 1462 1469 1478 1482 1483 1477 1471 1469 1463 1460 1461 1458 1459 1460 1460 1463 1464 1466 1471 1474 1479 1483 1487 1491 1494 1497 1500 1502 1504 1505 1508 1513 1518 1523 1526 1528 1532 1534 1536 1537 1538 1540 1541 1542 1543 1543 1544 1544 1543 1543 1543 1543 1543 1543 1544 1544 1544 1545 1545 1545 1546 1545 1545 1545 1545 1545 1545 1545 1545
1426 1437 1448 1442 1438 1445 1446 1448 1451 1450 1451 1451 1448 1447 1450 1456 1459 1459 1461 1465 1471 1478 1477 1472 1470 1462 1451 1447 1450 1453 1453 1456 1460 1462 1464 1468 1472 1477 1482 1485 1490 1492 1495 1498 1501 1503 1505 1508 1511 1516 1521 1524 1527 1530 1533 1535 1537 1538 1539 1540 1541 1542 1542 1543 1543 1542 1542 1542 1542 1542 1542 1543 1543 1544 1544 1544 1544 1545 1545 1545 1544 1544 1544 1544 1545 1545
1427 1431 1442 1442 1437 1444 1446 1444 1443 1444 1450 1453 1449 1450 1453 1452 1451 1453 1454 1453 1456 1466 1470 1474 1475 1461 1444 1441 1445 1447 1448 1453 1457 1459 1462 1466 1472 1478 1481 1484 1487 1491 1494 1496 1499 1502 1505 1508 1511 1515 1520 1523 1526 1529 1531 1533 1535 1537 1538 1539 1540 1541 1541 1542 1542 1541 1541 1541 1541 1541 1541 1542 1542 1543 1543 1543 1544 1544 1544 1544 1544 1544 1544 1545 1545 1545
1429 1429 1436 1440 1440 1442 1441 1437 1437 1438 1442 1447 1448 1448 1450 1453 1455 1458 1462 1456 1450 1454 1458 1466 1470 1455 1441 1443 1446 1446 1449 1452 1455 1458 1461 1465 1471 1476 1479 1482 1486 1490 1493 1496 1499 1502 1504 1507 1511 1515 1519 1521 1525 1528 1531 1532 1534 1536 1537 1538 1539 1540 1540 1541 1540 1540 1540 1540 1540 1540 1541 1541 1542 1542 1542 1543 1544 1544 1544 1544 1544 1544 1545 1545 1545 1545
1428 1427 1432 1439 1440 1437 1434 1434 1436 1437 1438 1441 1443 1442 1443 1448 1451 1457 1464 1460 1455 1454 1452 1456 1463 1454 1445 1447 1449 1449 1450 1452 1454 1457 1461 1466 1470 1474 1478 1482 1486 1489 1493 1496 1499 1501 1504 1508 1511 1514 1518 1521 1523 1527 1530 1532 1534 1535 1536 1537 1538 1538 1538 1539 1539 1539 1539 1538 1539 1539 1540 1541 1541 1541 1542 1543 1543 1544 1544 1544 1544 1545 1545 1545 1546 1545
1429 1428 1431 1437 1436 1433 1434 1437 1436 1436 1437 1440 1440 1437 1439 1444 1445 1446 1449 1450 1455 1458 1454 1460 1465 1455 1448 1449 1451 1451 1451 1453 1455 1457 1461 1467 1470 1473 1477 1481 1485 1489 1492 1496 1498 1501 1504 1507 1511 1514 1517 1519 1522 1526 1529 1531 1533 1534 1535 1535 1536 1536 1537 1537 1537 1537 1537 1537 1538 1538 1539 1540 1540 1541 1542 1542 1543 1543 1544 1544 1545 1545 1546 1546 1546 1546
1431 1429 1429 1436 1441 1442 1444 1444 1442 1439 1437 1437 1437 1436 1437 1439 1441 1444 1442 1444 1454 1454 1450 1458 1460 1451 1448 1451 1451 1451 1451 1453 1456 1458 1463 1467 1470 1474 1478 1481 1485 1489 1492 1494 1497 1500 1504 1507 1510 1513 1516 1518 1521 1524 1527 1529 1531 1532 1533 1534 1535 1535 1536 1536 1536 1536 1536 1536 1537 1538 1539 1539 1540 1541 1541 1542 1543 1544 1544 1545 1545 1546 1546 1546 1546 1546
1429 1427 1426 1433 1442 1447 1446 1443 1439 1437 1436 1436 1435 1435 1437 1437 1440 1446 1446 1450 1457 1451 1446 1452 1450 1446 1451 1452 1450 1451 1452 1453 1456 1460 1465 1468 1472 1475 1478 1481 1485 1488 1491 1494 1497 1500 1503 1506 1510 1513 1515 1517 1520 1523 1526 1528 1530 1531 1532 1533 1534 1534 1534 1534 1534 1534 1535 1535 1536 1537 1538 1539 1540 1541 1541 1542 1543 1544 1545 1545 1545 1546 1546 1546 1546 1546
1426 1426 1424 1424 1428 1431 1431 1429 1426 1429 1435 1438 1437 1436 1438 1438 1439 1443 1448 1451 1451 1448 1448 1447 1441 1444 1450 1451 1450 1451 1451 1453 1456 1460 1465 1469 1473 1475 1478 1482 1484 1487 1491 1493 1497 1501 1504 1507 1510 1512 1515 1517 1519 1522 1524 1526 1528 1529 1531 1532 1533 1533 1533 1533 1533 1533 1534 1534 1535 1537 1538 1539 1540 1540 1541 1543 1544 1544 1545 1545 1546 1546 1546 1547 1547 1547
1426 1428 1425 1423 1422 1422 1421 1422 1423 1427 1433 1436 1436 1438 1438 1439 1440 1443 1447 1445 1441 1447 1452 1444 1438 1443 1445 1445 1449 1449 1449 1453 1456 1459 1465 1469 1472 1475 1478 1482 1484 1487 1490 1492 1495 1499 1501 1505 1510 1512 1515 1516 1519 1521 1523 1526 1528 1529 1530 1531 1531 1531 1531 1531 1531 1532 1533 1534 1535 1536 1537 1538 1540 1541 1542 1543 1544 1545 1545 1546 1546 1547 1547 1547 1547 1548
1424 1426 1426 1426 1428 1426 1425 1426 1426 1426 1429 1431 1433 1436 1437 1438 1440 1444 1446 1442 1439 1446 1447 1439 1440 1445 1440 1439 1444 1445 1448 1453 1457 1461 1465 1469 1473 1475 1478 1481 1484 1486 1488 1491 1494 1497 1499 1501 1506 1510 1513 1515 1518 1521 1523 1526 1527 1528 1529 1529 1529 1529 1529 1529 1530 1531 1532 1533 1534 1536 1537 1539 1540 1541 1542 1543 1544 1545 1545 1546 1547 1547 1548 1548 1548 1548
1423 1424 1424 1427 1430 1430 1430 1430 1428 1427 1428 1429 1430 1432 1434 1436 1438 1441 1443 1441 1440 1443 1440 1436 1442 1443 1437 1437 1440 1444 1449 1453 1458 1463 1466 1468 1472 1474 1477 1480 1482 1485 1487 1489 1494 1497 1500 1503 1505 1508 1510 1514 1517 1519 1521 1523 1525 1526 1527 1527 1527 1527 1527 1528 1529 1530 1531 1532 1534 1536 1537 1539 1540 1541 1542 1543 1544 1545 1545 1546 1547 1548 1548 1548 1549 1549
1424 1424 1424 1425 1430 1434 1433 1431 1430 1429 1428 1429 1429 1429 1431 1434 1436 1439 1440 1440 1442 1444 1441 1441 1444 1442 1438 1439 1442 1446 1451 1454 1459 1463 1465 1467 1470 1473 1477 1479 1481 1484 1487 1490 1494 1498 1501 1504 1506 1507 1510 1513 1517 1518 1519 1521 1522 1524 1525 1525 1525 1526 1526 1527 1528 1529 1531 1532 1534 1536 1538 1539 1540 1541 1543 1543 1544 1545 1546 1547 1548 1548 1549 1549 1550 1550
1426 1426 1425 1426 1431 1434 1433 1432 1432 1430 1430 1432 1431 1428 1429 1432 1435 1437 1437 1438 1442 1443 1444 1447 1446 1440 1438 1441 1445 1448 1452 1455 1459 1461 1463 1467 1469 1471 1475 1478 1480 1483 1486 1491 1495 1497 1500 1503 1504 1507 1510 1513 1516 1518 1519 1520 1520 1522 1523 1523 1524 1524 1525 1527 1527 1528 1530 1532 1534 1536 1538 1539 1540 1541 1543 1544 1545 1546 1546 1547 1548 1549 1550 1550 1551 1551
1424 1425 1426 1428 1431 1434 1434 1433 1431 1433 1437 1437 1431 1428 1429 1429 1431 1434 1435 1437 1439 1440 1443 1446 1441 1435 1436 1441 1445 1448 1451 1454 1457 1458 1461 1465 1468 1471 1474 1477 1481 1483 1486 1491 1494 1497 1499 1501 1504 1506 1509 1512 1515 1517 1519 1519 1520 1522 1522 1522 1523 1524 1525 1526 1527 1528 1530 1532 1534 1536 1538 1539 1540 1542 1543 1544 1545 1546 1547 1548 1549 1550 1551 1551 1552 1552
1423 1424 1423 1424 1428 1434 1435 1432 1432 1438 1441 1439 1435 1433 1433 1432 1432 1434 1436 1438 1438 1437 1438 1440 1437 1435 1437 1440 1443 1446 1448 1451 1455 1458 1461 1464 1468 1471 1474 1477 1480 1483 1486 1489 1492 1495 1498 1501 1503 1506 1508 1512 1514 1517 1519 1520 1520 1521 1521 1522 1522 1523 1525 1527 1527 1528 1530 1532 1534 1536 1537 1539 1541 1543 1544 1545 1546 1546 1548 1549 1550 1551 1552 1552 1553 1553
1424 1424 1423 1422 1424 1429 1432 1434 1441 1444 1439 1436 1438 1439 1438 1439 1438 1438 1438 1437 1437 1437 1438 1439 1438 1438 1438 1439 1442 1445 1448 1452 1456 1460 1462 1464 1467 1470 1474 1477 1480 1482 1485 1488 1491 1494 1497 1500 1503 1505 1508 1511 1513 1516 1518 1519 1519 1520 1521 1521 1521 1523 1525 1527 1528 1529 1531 1533 1534 1535 1537 1539 1541 1543 1544 1545 1546 1547 1549 1550 1551 1552 1553 1553 1554 1553
1423 1424 1424 1424 1424 1428 1434 1437 1441 1440 1436 1437 1441 1441 1442 1443 1443 1444 1443 1438 1436 1437 1438 1438 1439 1439 1439 1441 1444 1447 1450 1454 1458 1460 1463 1465 1467 1469 1472 1475 1478 1481 1484 1487 1491 1493 1496 1500 1503 1505 1508 1510 1512 1515 1517 1518 1519 1520 1520 1520 1521 1523 1525 1527 1528 1529 1531 1533 1535 1536 1537 1539 1541 1543 1544 1545 1547 1548 1549 1550 1551 1552 1553 1554 1554 1554
1420 1421 1423 1427 1429 1430 1433 1434 1433 1434 1437 1438 1438 1438 1439 1439 1438 1440 1441 1435 1431 1434 1436 1437 1438 1439 1441 1443 1446 1449 1452 1456 1459 1461 1463 1465 1467 1469 1471 1473 1476 1480 1484 1488 1491 1493 1497 1500 1503 1505 1507 1509 1512 1514 1516 1518 1519 1519 1519 1520 1521 1523 1525 1526 1528 1530 1532 1533 1535 1537 1538 1539 1541 1544 1545 1547 1548 1549 1550 1551 1552 1553 1554 1555 1555 1555
1417 1418 1420 1427 1431 1429 1429 1432 1434 1437 1439 1436 1433 1433 1434 1435 1434 1436 1438 1432 1428 1430 1434 1436 1437 1439 1441 1443 1447 1450 1454 1458 1460 1460 1461 1463 1465 1468 1471 1474 1477 1481 1485 1488 1490 1493 1497 1500 1503 1505 1507 1509 1512 1514 1516 1518 1518 1519 1519 1520 1521 1523 1525 1527 1529 1530 1532 1534 1536 1537 1539 1540 1542 1544 1545 1547 1549 1550 1551 1552 1553 1554 1555 1556 1556 1556
1419 1417 1417 1423 1429 1429 1430 1433 1435 1437 1437 1433 1431 1432 1434 1436 1435 1437 1439 1433 1425 1426 1432 1434 1436 1438 1440 1443 1447 1450 1452 1454 1454 1454 1457 1461 1463 1467 1471 1474 1478 1481 1484 1487 1489 1492 1496 1499 1502 1504 1507 1509 1512 1514 1516 1517 1518 1518 1519 1520 1522 1524 1526 1528 1529 1531 1533 1534 1536 1538 1539 1540 1542 1544 1546 1548 1550 1551 1551 1552 1553 1555 1556 1556 1557 1557
1422 1421 1421 1423 1426 1427 1429 1430 1428 1430 1432 1432 1432 1433 1435 1436 1436 1439 1442 1435 1426 1427 1431 1433 1435 1438 1440 1444 1447 1448 1448 1447 1446 1448 1454 1460 1463 1467 1471 1474 1477 1480 1483 1486 1490 1493 1496 1498 1501 1504 1507 1509 1511 1513 1515 1517 1517 1518 1519 1520 1522 1524 1525 1528 1530 1531 1533 1535 1537 1539 1540 1541 1542 1544 1546 1549 1550 1551 1552 1553 1554 1555 1556 1557 1557 1557
1423 1422 1422 1423 1424 1426 1429 1429 1426 1426 1429 1432 1433 1433 1434 1437 1438 1437 1436 1433 1430 1431 1431 1433 1436 1438 1440 1444 1447 1447 1447 1448 1448 1449 1453 1459 1463 1467 1471 1475 1478 1480 1482 1485 1489 1492 1495 1498 1501 1504 1507 1509 1511 1513 1515 1516 1516 1517 1518 1519 1522 1524 1526 1528 1530 1532 1534 1536 1538 1540 1541 1542 1543 1545 1547 1549 1551 1552 1553 1554 1555 1556 1557 1557 1558 1558
1423 1424 1423 1423 1423 1423 1425 1427 1428 1428 1429 1431 1434 1435 1436 1438 1437 1435 1433 1434 1434 1434 1433 1435 1437 1438 1441 1445 1447 1448 1449 1451 1452 1453 1455 1459 1463 1466 1471 1475 1477 1479 1481 1483 1487 1490 1494 1498 1501 1503 1505 1507 1510 1512 1514 1515 1515 1516 1517 1519 1522 1524 1526 1528 1531 1533 1534 1536 1538 1540 1541 1543 1544 1546 1548 1550 1551 1552 1554 1555 1556 1557 1557 1558 1558 1559
1420 1423 1423 1422 1421 1422 1424 1428 1431 1431 1430 1430 1433 1435 1436 1436 1436 1435 1436 1436 1436 1435 1435 1437 1438 1440 1442 1445 1447 1449 1451 1453 1454 1455 1457 1461 1464 1467 1470 1473 1475 1477 1480 1483 1487 1490 1493 1496 1499 1502 1504 1506 1509 1512 1513 1514 1514 1515 1517 1519 1522 1524 1527 1529 1531 1533 1535 1537 1538 1540 1542 1543 1545 1547 1549 1550 1552 1553 1554 1556 1557 1557 1558 1559 1559 1560
1420 1421 1420 1417 1419 1423 1426 1428 1430 1430 1430 1430 1431 1433 1433 1434 1435 1436 1437 1436 1436 1436 1437 1437 1439 1441 1442 1444 1447 1450 1452 1454 1455 1456 1459 1462 1465 1467 1470 1471 1473 1476 1479 1483 1487 1489 1492 1495 1498 1501 1503 1506 1509 1511 1512 1513 1514 1515 1517 1519 1522 1524 1527 1530 1532 1534 1536 1538 1539 1541 1543 1544 1546 1548 1550 1551 1552 1554 1555 1556 1557 1558 1559 1559 1560 1561
1425 1426 1424 1420 1421 1423 1425 1427 1429 1432 1433 1433 1433 1433 1434 1435 1436 1437 1437 1437 1437 1438 1438 1438 1440 1441 1442 1445 1447 1450 1452 1454 1456 1457 1459 1462 1464 1467 1468 1470 1472 1475 1479 1483 1486 1489 1492 1495 1498 1500 1503 1505 1508 1510 1512 1513 1514 1515 1517 1520 1522 1525 1528 1530 1532 1534 1536 1538 1540 1542 1543 1545 1547 1549 1550 1551 1553 1554 1556 1557 1558 1559 1559 1560 1561 1562
1428 1428 1427 1424 1423 1425 1428 1430 1432 1433 1433 1434 1435 1436 1436 1437 1437 1437 1438 1438 1439 1439 1440 1440 1440 1441 1443 1445 1447 1450 1452 1454 1455 1457 1460 1462 1464 1466 1467 1469 1472 1475 1479 1482 1485 1489 1492 1495 1498 1500 1502 1505 1508 1510 1511 1513 1515 1516 1518 1521 1523 1526 1528 1531 1533 1535 1537 1539 1540 1542 1544 1546 1548 1549 1551 1552 1553 1555 1557 1558 1559 1559 1560 1561 1562 1562
1428 1429 1427 1425 1424 1427 1430 1431 1432 1433 1434 1435 1436 1436 1437 1437 1437 1438 1439 1439 1440 1440 1440 1441 1441 1442 1444 1446 1447 1449 1451 1453 1455 1457 1459 1461 1463 1464 1465 1467 1471 1475 1478 1481 1485 1488 1491 1495 1498 1500 1502 1505 1507 1509 1511 1513 1515 1517 1519 1521 1524 1526 1528 1531 1533 1535 1537 1539 1540 1542 1544 1547 1548 1550 1551 1553 1554 1556 1558 1559 1559 1560 1561 1562 1563 1563
1427 1429 1427 1424 1425 1426 1429 1431 1432 1433 1434 1435 1435 1436 1437 1437 1438 1438 1439 1440 1440 1440 1440 1441 1442 1443 1445 1446 1447 1449 1451 1453 1454 1456 1458 1460 1461 1462 1464 1467 1470 1474 1478 1481 1485 1488 1491 1495 1498 1500 1502 1504 1506 1509 1511 1513 1515 1518 1520 1521 1524 1526 1528 1531 1534 1535 1537 1539 1540 1542 1545 1547 1549 1550 1552 1553 1555 1557 1558 1559 1560 1561 1561 1562 1563 1563
1428 1428 1426 1426 1425 1425 1427 1429 1430 1431 1432 1433 1435 1436 1437 1437 1438 1439 1439 1440 1440 1440 1441 1441 1442 1443 1445 1446 1447 1448 1450 1452 1453 1455 1457 1459 1460 1461 1463 1466 1469 1473 1477 1481 1485 1488 1492 1494 1497 1499 1502 1504 1506 1508 1511 1513 1516 1518 1521 1522 1525 1527 1529 1532 1534 1536 1538 1539 1541 1543 1545 1547 1549 1551 1552 1554 1555 1556 1557 1558 1559 1560 1561 1561 1561 1562
1427 1426 1425 1426 1425 1424 1426 1428 1430 1429 1430 1432 1435 1436 1436 1437 1438 1439 1439 1440 1440 1440 1440 1441 1442 1443 1444 1445 1447 1448 1449 1451 1453 1455 1457 1458 1460 1462 1463 1465 1468 1472 1476 1480 1484 1488 1492 1494 1496 1499 1501 1503 1505 1508 1510 1513 1515 1518 1521 1523 1525 1528 1530 1532 1534 1536 1538 1540 1542 1543 1545 1547 1549 1551 1552 1554 1555 1556 1557 1558 1559 1560 1561 1561 1562 1562
1428 1427 1427 1426 1425 1426 1429 1431 1431 1431 1431 1433 1436 1436 1436 1437 1438 1439 1439 1439 1439 1440 1440 1441 1442 1443 1444 1445 1447 1448 1448 1449 1452 1455 1456 1458 1460 1462 1463 1465 1467 1471 1475 1479 1482 1486 1491 1494 1496 1499 1501 1503 1505 1508 1510 1513 1515 1518 1521 1523 1526 1528 1530 1533 1535 1536 1538 1540 1542 1544 1545 1547 1549 1551 1553 1554 1556 1557 1558 1559 1560 1561 1561 1562 1563 1563